Waarnemingen

Advertentie
Mijn weer
Görlitz, Duitsland (10499): temperatuur & dauwpunt: 15.02.2019 19:00:00 - 21.02.2019 19:00:00 (CET)Görlitz, Duitsland (10499): temperatuur 5cm & temperatuur -5cm: 15.02.2019 19:00:00 - 21.02.2019 19:00:00 (CET)Görlitz, Duitsland (10499): temperatuur -20cm & temperatuur -100cm: 15.02.2019 19:00:00 - 21.02.2019 19:00:00 (CET)Görlitz, Duitsland (10499): windsnelheid & windstoten: 15.02.2019 19:00:00 - 21.02.2019 19:00:00 (CET)Görlitz, Duitsland (10499): windrichting: 15.02.2019 19:00:00 - 21.02.2019 19:00:00 (CET)Görlitz, Duitsland (10499): luchtdruk: 15.02.2019 19:00:00 - 21.02.2019 19:00:00 (CET)Görlitz, Duitsland (10499): zicht: 15.02.2019 19:00:00 - 21.02.2019 19:00:00 (CET)Görlitz, Duitsland (10499): Zonneschijnduur: 15.02.2019 19:00:00 - 21.02.2019 19:00:00 (CET)Görlitz, Duitsland (10499): neerslag: 15.02.2019 19:00:00 - 21.02.2019 19:00:00 (CET)
Datum & Tijd tt [°C] td [°C] tt 5cm [°C] tt -5cm [°C] tt -20cm [°C] tt -100cm [°C] ff [km/u] ff [kn] fx [km/u] fx [kn] dd ppp [hPa] vv [km] sd [min] rr [mm]
21.02.2019 19:00:00 7,0 4,7 5,8 5,5 5,0 4,7 10 6 26 14 W 1024,4 6 0 0,3
21.02.2019 18:00:00 7,8 4,2 6,8 5,6 4,9 4,7 13 7 25 14 WZW 1023,9 12 0 0,0
21.02.2019 17:00:00 7,6 4,7 6,9 5,8 4,8 4,7 13 7 24 13 WZW 1024,0 12 0 0,0
21.02.2019 16:00:00 7,4 4,5 6,5 5,9 4,7 4,7 17 9 30 16 WZW 1024,1 12 0 0,0
21.02.2019 15:00:00 6,9 4,3 6,5 5,7 4,6 4,7 19 10 29 15 ZW 1023,9 19 0 0,3
21.02.2019 14:00:00 7,2 4,1 6,3 5,7 4,4 4,7 18 10 29 16 WZW 1024,3 13 0 0,9
21.02.2019 13:00:00 8,3 3,4 8,6 5,5 4,2 4,7 18 10 30 16 W 1024,5 12 0 0,0
21.02.2019 12:00:00 7,9 3,1 8,1 5,1 4,0 4,7 16 9 35 19 W 1025,2 11 0 0,0
21.02.2019 11:00:00 7,8 3,0 8,6 4,5 3,9 4,7 15 8 23 12 WZW 1025,3 13 0 0,0
21.02.2019 10:00:00 6,5 2,8 6,9 3,7 3,8 4,7 15 8 23 12 ZW 1025,2 12 3 0,0
21.02.2019 09:00:00 5,8 2,2 5,8 3,1 3,8 4,7 16 9 24 13 ZW 1025,4 12 0 0,0
21.02.2019 08:00:00 4,8 1,6 4,2 2,7 3,9 4,7 16 9 25 13 ZW 1025,5 12 0 0,0
21.02.2019 07:00:00 3,8 1,0 2,6 2,7 4,0 4,7 13 7 17 9 ZW 1025,3 12 0 0,0
21.02.2019 06:00:00 3,4 0,8 1,7 2,9 4,1 4,7 10 5 15 8 ZW 1025,3 12 0 0,0
21.02.2019 05:00:00 3,1 0,7 1,3 3,1 4,3 4,7 10 5 15 8 ZW 1025,5 12 0 0,0
21.02.2019 04:00:00 3,5 1,0 2,1 3,3 4,4 4,6 11 6 16 8 ZW 1025,5 13 0 0,0
21.02.2019 03:00:00 4,0 1,0 2,3 3,4 4,5 4,6 9 5 14 8 ZW 1025,7 14 0 0,0
21.02.2019 02:00:00 4,2 0,9 2,6 3,6 4,6 4,6 9 5 13 7 WZW 1025,8 15 0 0,0
21.02.2019 01:00:00 4,0 0,7 1,8 4,0 4,7 4,6 7 4 10 6 WZW 1025,6 16 0 0,0
21.02.2019 00:00:00 4,5 1,0 3,2 4,2 4,8 4,6 5 3 13 7 WZW 1025,3 18 0 0,0
20.02.2019 23:00:00 5,1 1,2 3,8 4,5 4,9 4,6 11 6 16 9 WZW 1025,2 17 0 0,0
20.02.2019 22:00:00 6,1 1,4 5,1 4,7 4,9 4,6 10 5 15 8 WZW 1024,9 22 0 0,0
20.02.2019 21:00:00 6,6 1,3 5,4 4,9 5,0 4,6 10 5 16 9 WZW 1024,8 19 0 0,0
20.02.2019 20:00:00 6,7 1,4 5,5 5,1 5,0 4,6 9 5 18 10 W 1024,5 24 0 0,0
20.02.2019 19:00:00 6,8 1,9 5,7 5,3 5,0 4,6 8 5 19 11 WZW 1024,0 21 0 0,0
20.02.2019 18:00:00 7,2 1,9 6,2 5,6 5,0 4,6 11 6 17 9 WZW 1023,6 25 0 0,0
20.02.2019 17:00:00 7,6 2,0 6,7 6,0 4,9 4,6 10 6 29 15 W 1023,1 25 0 0,0
20.02.2019 16:00:00 8,1 1,5 7,7 6,2 4,7 4,6 15 8 31 17 W 1022,9 23 1 0,0
20.02.2019 15:00:00 8,3 1,4 8,7 6,1 4,6 4,6 20 11 31 17 W 1022,5 20 1 0,0
20.02.2019 14:00:00 7,8 2,1 8,3 5,8 4,4 4,6 16 9 35 19 W 1022,7 18 0 0,0
20.02.2019 13:00:00 7,6 1,8 8,6 5,2 4,2 4,6 20 11 33 18 W 1022,6 31 0 0,0
20.02.2019 12:00:00 6,8 1,5 7,5 4,6 4,1 4,6 22 12 32 17 WZW 1022,6 20 0 0,0
20.02.2019 11:00:00 6,1 0,7 6,4 4,2 4,1 4,6 18 10 27 14 WZW 1022,7 19 0 0,0
20.02.2019 10:00:00 5,9 0,8 5,9 3,8 4,1 4,6 17 9 32 18 W 1022,3 25 0 0,0
20.02.2019 09:00:00 4,9 0,5 4,7 3,5 4,1 4,5 21 11 32 18 WZW 1021,9 19 0 0,0
20.02.2019 08:00:00 4,3 0,5 3,7 3,4 4,2 4,5 17 9 29 15 W 1021,4 17 0 0,0
20.02.2019 07:00:00 4,2 0,3 3,2 3,6 4,2 4,5 18 10 29 16 W 1020,6 17 0 0,0
20.02.2019 06:00:00 4,9 1,0 4,1 3,7 4,3 4,5 19 10 28 15 W 1020,1 13 0 0,0
20.02.2019 05:00:00 5,0 1,6 4,2 3,7 4,3 4,5 14 7 26 14 WZW 1020,0 13 0 0,0
20.02.2019 04:00:00 5,1 1,5 4,2 3,8 4,4 4,5 14 8 29 16 W 1019,7 16 0 0,0
20.02.2019 03:00:00 5,4 1,5 4,0 3,9 4,5 4,5 18 10 29 15 WZW 1019,7 13 0 0,0
20.02.2019 02:00:00 5,5 1,4 4,3 4,1 4,5 4,5 18 10 35 19 W 1019,5 17 0 0,0
20.02.2019 01:00:00 6,2 1,7 5,2 4,2 4,6 4,5 22 12 42 23 W 1019,2 18 0 0,0
20.02.2019 00:00:00 6,1 1,6 5,3 4,2 4,6 4,5 18 10 30 16 W 1018,8 19 0 0,0
19.02.2019 23:00:00 6,4 1,8 5,3 4,2 4,7 4,5 22 12 34 18 W 1018,5 19 0 0,0
19.02.2019 22:00:00 5,6 2,4 4,5 4,2 4,9 4,5 13 7 19 10 WZW 1018,6 17 0 0,0
19.02.2019 21:00:00 4,1 2,2 3,1 4,4 5,0 4,5 10 6 21 11 ZW 1018,9 18 0 0,0
19.02.2019 20:00:00 4,9 2,2 3,1 4,7 5,1 4,5 14 7 25 14 WZW 1018,5 22 0 0,0
19.02.2019 19:00:00 5,1 2,5 3,4 5,3 5,2 4,5 14 8 29 15 WZW 1018,1 33 0 0,0
19.02.2019 18:00:00 6,5 3,0 5,4 5,9 5,2 4,5 15 8 26 14 WZW 1017,4 40 3 0,0
19.02.2019 17:00:00 7,1 3,6 6,3 6,3 5,1 4,5 22 12 34 18 WZW 1017,1 13 0 0,0
19.02.2019 16:00:00 7,8 3,4 7,1 6,7 5,0 4,5 16 9 37 20 W 1017,2 20 0 0,0
19.02.2019 15:00:00 9,3 2,6 8,8 7,4 4,8 4,5 18 10 31 17 W 1016,7 25 1 0,0
19.02.2019 14:00:00 11,2 3,1 11,8 7,7 4,4 4,5 21 11 38 20 W 1016,1 36 31 0,0
19.02.2019 13:00:00 11,3 3,1 13,6 6,7 4,0 4,5 20 11 29 16 W 1016,2 13 60 0,0
19.02.2019 12:00:00 9,9 2,0 11,7 5,6 3,7 4,4 19 10 30 16 ZW 1016,9 9 60 0,0
19.02.2019 11:00:00 8,2 2,5 9,5 4,5 3,6 4,4 21 11 37 20 ZZW 1017,1 6 60 0,0
19.02.2019 10:00:00 6,6 1,6 7,4 3,5 3,5 4,4 24 13 38 21 ZZW 1017,3 6 60 0,0
19.02.2019 09:00:00 5,8 1,1 6,2 2,7 3,5 4,4 25 14 39 21 ZZW 1017,2 5 60 0,0
19.02.2019 08:00:00 5,0 0,9 4,1 2,4 3,6 4,4 22 12 40 22 ZW 1017,1 5 20 0,0
19.02.2019 07:00:00 5,1 0,7 3,7 2,4 3,7 4,4 29 16 42 23 ZZW 1016,4 5 0 0,0
19.02.2019 06:00:00 4,9 0,7 3,3 2,5 3,8 4,4 23 12 35 19 ZW 1016,6 6 0 0,0
19.02.2019 05:00:00 4,4 0,7 2,7 2,7 3,9 4,4 21 11 29 16 ZW 1016,9 5 0 0,0
19.02.2019 04:00:00 5,4 0,7 3,5 2,8 4,0 4,4 21 11 32 17 ZW 1016,9 6 0 0,0
19.02.2019 03:00:00 5,7 0,8 3,6 3,0 4,2 4,4 15 8 35 19 ZZW 1017,1 7 0 0,0
19.02.2019 02:00:00 7,2 0,7 5,2 3,1 4,3 4,4 21 11 34 19 ZZW 1017,3 9 0 0,0
19.02.2019 01:00:00 7,6 0,4 5,4 3,2 4,5 4,4 19 11 29 16 ZZW 1017,6 10 0 0,0
19.02.2019 00:00:00 7,3 0,3 4,3 3,3 4,7 4,3 17 9 30 16 ZZW 1017,8 11 0 0,0
18.02.2019 23:00:00 6,8 -0,5 4,4 3,6 4,9 4,3 21 12 29 16 ZZW 1018,1 13 0 0,0
18.02.2019 22:00:00 5,7 -1,1 2,7 4,0 5,1 4,3 10 5 22 12 ZW 1018,5 14 0 0,0
18.02.2019 21:00:00 6,0 -0,6 3,4 4,5 5,3 4,3 15 8 20 11 ZW 1018,7 14 0 0,0
18.02.2019 20:00:00 7,4 -0,5 4,2 5,1 5,4 4,3 13 7 19 10 ZW 1018,7 15 0 0,0
18.02.2019 19:00:00 8,2 -0,9 4,9 5,9 5,5 4,3 13 7 24 13 ZZW 1018,9 19 0 0,0
18.02.2019 18:00:00 9,9 -1,5 7,2 6,9 5,5 4,3 13 7 24 13 ZZW 1018,8 22 21 0,0
18.02.2019 17:00:00 11,1 -0,4 9,4 7,9 5,4 4,4 21 11 31 17 Z 1019,1 19 60 0,0
18.02.2019 16:00:00 12,9 0,1 12,5 8,4 5,1 4,4 18 10 30 16 ZZW 1019,2 13 60 0,0
18.02.2019 15:00:00 13,5 1,1 14,0 8,5 4,7 4,4 18 10 29 16 ZZW 1019,5 14 60 0,0
18.02.2019 14:00:00 13,2 0,6 14,0 8,0 4,3 4,4 18 10 28 15 ZZW 1020,1 12 60 0,0
18.02.2019 13:00:00 13,2 1,0 14,6 7,1 3,8 4,4 18 10 31 17 ZZW 1020,8 14 60 0,0
18.02.2019 12:00:00 12,4 -0,1 13,5 5,9 3,5 4,4 21 12 27 15 ZZW 1021,4 15 60 0,0
18.02.2019 11:00:00 11,0 0,8 12,3 4,4 3,2 4,3 16 9 23 12 ZW 1022,1 12 60 0,0
18.02.2019 10:00:00 9,0 0,7 9,8 3,0 3,1 4,3 17 9 24 13 ZW 1022,5 13 60 0,0
18.02.2019 09:00:00 7,5 0,1 7,7 2,0 3,2 4,3 13 7 22 12 ZW 1022,6 8 60 0,0
18.02.2019 08:00:00 5,6 -0,6 3,6 1,7 3,3 4,2 11 6 17 9 ZW 1022,8 12 29 0,0
18.02.2019 07:00:00 5,0 -0,6 0,5 1,9 3,4 4,2 10 6 18 10 WZW 1022,6 11 0 0,0
18.02.2019 06:00:00 5,2 -0,4 1,0 2,1 3,5 4,2 11 6 18 10 ZW 1022,7 11 0 0,0
18.02.2019 05:00:00 5,4 -0,3 2,6 2,2 3,7 4,2 14 7 23 13 ZW 1022,9 11 0 0,0
18.02.2019 04:00:00 6,3 -0,4 3,7 2,4 3,8 4,2 16 8 25 13 ZW 1022,9 13 0 0,0
18.02.2019 03:00:00 6,3 -0,2 3,4 2,5 4,0 4,2 17 9 24 13 ZW 1023,1 12 0 0,0
18.02.2019 02:00:00 5,6 -0,7 2,0 2,7 4,2 4,2 10 6 22 12 Z 1023,6 12 0 0,0
18.02.2019 01:00:00 6,3 -0,5 3,8 2,9 4,3 4,2 18 10 23 13 Z 1023,6 12 0 0,0
18.02.2019 00:00:00 6,6 -0,3 3,4 3,2 4,5 4,2 11 6 20 11 ZZW 1023,7 12 0 0,0
17.02.2019 23:00:00 5,2 -0,8 0,6 3,6 4,7 4,2 9 5 14 8 ZW 1024,2 12 0 0,0
17.02.2019 22:00:00 6,0 -0,8 1,5 4,1 4,9 4,2 11 6 14 8 ZW 1024,3 14 0 0,0
17.02.2019 21:00:00 6,9 -0,2 2,1 4,6 5,1 4,2 9 5 12 7 ZW 1024,1 13 0 0,0
17.02.2019 20:00:00 6,7 0,0 2,5 5,2 5,3 4,2 9 5 11 6 ZW 1024,2 14 0 0,0
17.02.2019 19:00:00 8,0 0,3 2,1 6,0 5,3 4,2 0 0 18 10 N 1023,9 15 0 0,0
17.02.2019 18:00:00 7,9 0,1 4,5 6,9 5,3 4,2 10 5 16 9 ZZW 1024,0 15 6 0,0
17.02.2019 17:00:00 10,1 1,0 8,3 7,9 5,1 4,2 16 8 21 11 Z 1023,8 18 58 0,0
17.02.2019 16:00:00 12,4 1,4 11,7 8,4 4,7 4,2 11 6 20 11 Z 1024,2 20 60 0,0
17.02.2019 15:00:00 13,4 2,7 14,1 8,4 4,3 4,2 14 8 19 11 ZZW 1024,5 14 60 0,0
17.02.2019 14:00:00 12,9 1,7 14,2 7,8 3,8 4,2 16 9 21 11 ZZW 1024,9 13 60 0,0
17.02.2019 13:00:00 12,3 2,5 14,1 6,7 3,3 4,2 14 8 19 10 ZW 1025,4 14 60 0,0
17.02.2019 12:00:00 11,0 1,4 12,9 5,3 3,0 4,2 13 7 18 10 ZW 1026,1 11 60 0,0
17.02.2019 11:00:00 9,8 1,6 11,7 3,8 2,8 4,2 14 7 21 11 ZW 1026,5 13 60 0,0
17.02.2019 10:00:00 8,8 0,5 10,4 2,3 2,8 4,2 2 1 8 4 Z 1026,6 12 60 0,0
17.02.2019 09:00:00 6,1 0,1 6,0 1,4 2,8 4,1 4 2 8 4 Z 1027,1 10 60 0,0
17.02.2019 08:00:00 3,1 -0,7 1,0 1,4 2,9 4,1 8 4 14 8 Z 1027,3 8 19 0,0
17.02.2019 07:00:00 3,4 -0,5 -0,5 1,4 3,1 4,1 10 6 14 8 ZW 1027,2 9 0 0,0
17.02.2019 06:00:00 3,9 -0,3 0,1 1,6 3,2 4,1 11 6 15 8 ZW 1026,7 10 0 0,0
17.02.2019 05:00:00 4,3 -0,4 0,4 1,9 3,3 4,1 9 5 19 10 ZW 1026,9 11 0 0,0
17.02.2019 04:00:00 4,6 -0,4 2,4 2,1 3,5 4,1 13 7 22 12 ZW 1026,7 11 0 0,0
17.02.2019 03:00:00 5,2 -0,3 2,2 2,2 3,6 4,1 16 9 22 12 ZW 1026,7 14 0 0,0
17.02.2019 02:00:00 5,9 -0,1 3,0 2,4 3,8 4,1 16 9 22 12 WZW 1026,8 13 0 0,0
17.02.2019 01:00:00 6,0 -0,1 3,1 2,6 3,9 4,1 16 8 23 12 ZW 1026,8 14 0 0,0
17.02.2019 00:00:00 6,0 0,2 1,4 2,9 4,1 4,1 9 5 17 9 ZW 1026,9 14 0 0,0
16.02.2019 23:00:00 6,0 0,2 2,2 3,3 4,3 4,0 12 6 19 10 ZW 1026,7 14 0 0,0
16.02.2019 22:00:00 6,9 0,0 4,2 3,6 4,4 4,0 15 8 24 13 ZW 1026,6 18 0 0,0
16.02.2019 21:00:00 6,5 0,0 3,7 4,0 4,6 4,0 13 7 24 13 ZZW 1026,8 17 0 0,0
16.02.2019 20:00:00 6,4 0,0 3,4 4,6 4,7 4,0 11 6 22 12 ZZW 1027,0 17 0 0,0
16.02.2019 19:00:00 7,6 0,4 5,4 5,3 4,8 4,0 17 9 28 15 Z 1027,1 17 0 0,0
16.02.2019 18:00:00 8,4 0,8 6,6 6,2 4,7 4,1 18 10 24 13 Z 1026,9 16 18 0,0
16.02.2019 17:00:00 9,9 1,0 8,4 7,1 4,6 4,1 15 8 27 15 Z 1026,7 20 60 0,0
16.02.2019 16:00:00 11,5 1,2 11,1 7,5 4,2 4,1 21 12 32 17 Z 1026,7 15 60 0,0
16.02.2019 15:00:00 11,9 1,9 12,3 7,5 3,8 4,1 21 12 34 18 Z 1027,2 16 60 0,0
16.02.2019 14:00:00 12,1 1,7 13,1 6,9 3,3 4,0 20 11 35 19 ZZW 1027,8 22 60 0,0
16.02.2019 13:00:00 11,4 2,7 12,6 5,9 2,9 4,0 23 13 31 17 ZZW 1028,2 12 60 0,0
16.02.2019 12:00:00 10,1 1,5 11,3 4,4 2,6 4,0 21 11 29 16 ZZW 1028,5 12 60 0,0
16.02.2019 11:00:00 9,6 2,0 10,5 2,8 2,5 4,0 18 10 29 15 ZZW 1028,9 10 60 0,0
16.02.2019 10:00:00 7,9 1,0 7,9 1,5 2,5 4,0 18 10 24 13 Z 1029,2 7 60 0,0
16.02.2019 09:00:00 6,0 0,9 5,6 1,3 2,6 4,0 20 11 28 15 ZZW 1029,6 8 60 0,0
16.02.2019 08:00:00 3,2 -0,5 0,2 1,3 2,7 4,0 4 2 11 6 ZZW 1030,0 9 22 0,0
16.02.2019 07:00:00 2,9 -0,1 -1,8 1,4 2,8 4,0 5 3 10 5 Z 1029,9 10 0 0,0
16.02.2019 06:00:00 2,1 -0,7 -2,5 1,4 2,9 3,9 5 3 6 3 WZW 1030,2 12 0 0,0
16.02.2019 05:00:00 2,4 -1,3 -1,5 1,5 3,0 3,9 4 2 10 6 ZZW 1030,5 17 0 0,0
16.02.2019 04:00:00 2,6 -1,9 0,0 1,6 3,1 3,9 7 4 11 6 Z 1030,6 19 0 0,0
16.02.2019 03:00:00 2,2 -2,2 -0,9 1,7 3,3 3,9 9 5 11 6 Z 1031,3 19 0 0,0
16.02.2019 02:00:00 1,6 -2,1 -1,3 1,8 3,5 3,9 5 3 12 7 Z 1031,9 14 0 0,0
16.02.2019 01:00:00 0,6 -2,1 -1,5 2,0 3,7 3,9 10 6 12 7 ZZO 1032,3 12 0 0,0
16.02.2019 00:00:00 1,5 -1,6 -0,9 2,3 3,9 3,9 7 4 12 7 Z 1032,4 12 0 0,0
15.02.2019 23:00:00 1,8 -1,3 -0,5 2,8 4,1 3,9 8 4 10 5 Z 1032,6 15 0 0,0
15.02.2019 22:00:00 2,5 -0,9 -1,4 3,3 4,3 3,9 4 2 5 3 Z 1033,1 19 0 0,0
15.02.2019 21:00:00 3,4 -0,9 0,8 3,9 4,5 3,9 4 2 8 5 Z 1033,3 19 0 0,0
15.02.2019 20:00:00 3,5 -0,3 -0,1 4,6 4,6 3,9 6 4 9 5 ZZW 1033,4 16 0 0,0
15.02.2019 19:00:00 5,7 -0,4 0,9 5,4 4,6 3,9 7 4 8 4 WZW 1033,3 29 0 0,0

tt = temperatuur
td = dauwpunt
tt 5cm = temperatuur 5cm
tt -5cm = temperatuur -5cm
tt -20cm = temperatuur -20cm
tt -100cm = temperatuur -100cm
ff = windsnelheid
fx = windstoten
dd = windrichting
ppp = luchtdruk
vv = zicht
sd = Zonneschijnduur
rr = neerslag

Weerstations in de omgeving